EUTELSAT 9B

Last updated on Mon Oct 14 2024 00:02:40 GMT+0000 (Coordinated Universal Time)

1 41310U 16005A 24287.33679937 .00000061 00000+0 00000+0 0 9996 2 41310 0.0677 68.2539 0003732 163.5398 280.8570 1.00272405 31986
UTC large
Height (km)
Speed (km/s)
/
Latitude / Longitude
Inclination (degrees)
Orbital Period (minutes)
Azimuth
Elevation
Range (km)
Doppler Factor

Next 0 passes for location: London (51.5072 / 0.1276)

Sorry there are no passes over London.